This demonstration page uses our WeatherBlox Daily Observations layout. Learn more.

Left ArrowRight Arrow

39.08367, -84.50855

Hourly Observations for September 23, 2015

Temp ( °F °C ) Dew Point ( °F °C ) Humidity (%) Winds ( mph kmh ) Pressure ( in mb ) Visibility ( mi km ) Precip ( " mm )
12:08 am 00:08 Clear with Mist and Fog 55 13 55 13 100 100 Calm 30.21 1023 3 5 0.00 0.00
12:53 am 00:53 Clear 56 13.3 55 12.8 97 97 Calm 30.21 1023 7 11 0.00 0.00
1:07 am 01:07 Clear with Mist and Fog 55 12.8 55 12.8 100 100 Calm 30.21 1023 2 3 0.00 0.00
1:15 am 01:15 Clear with Mist and Fog 56 13.3 56 13.3 100 100 NE 3 6 30.21 1023 3 5 0.00 0.00
1:37 am 01:37 Clear with Mist and Fog 55 12.8 55 12.8 100 100 NE 3 6 30.21 1023 3 4 0.00 0.00
1:46 am 01:46 Clear with Mist and Fog 55 13 55 13 100 100 Calm 30.21 1023 4 6 0.00 0.00
1:53 am 01:53 Clear with Mist and Fog 55 12.8 55 12.8 100 100 Calm 30.21 1023 3 5 0.00 0.00
2:19 am 02:19 Clear with Mist and Fog 55 12.8 55 12.8 100 100 ENE 3 6 30.21 1023 2 3 0.00 0.00
2:37 am 02:37 Clear with Mist and Fog 55 12.8 55 12.8 100 100 Calm 30.21 1023 3 5 0.00 0.00
2:42 am 02:42 Clear with Mist and Fog 54 12 54 12 100 100 ENE 3 6 30.21 1023 2 2 0.00 0.00
2:51 am 02:51 Clear with Fog 54 12 54 12 100 100 Calm 30.21 1023 1 1 0.00 0.00
2:53 am 02:53 Clear with Mist and Fog 53 11.7 53 11.7 100 100 Calm 30.21 1023 1 1 0.00 0.00
2:58 am 02:58 Clear with Mist and Fog 54 12 54 12 100 100 Calm 30.21 1023 2 3 0.00 0.00
3:14 am 03:14 Clear with Mist and Fog 54 12 54 12 100 100 Calm 30.21 1023 2 2 0.00 0.00
3:25 am 03:25 Clear with Fog 54 12.2 54 12.2 100 100 Calm 30.21 1023 1 1 0.00 0.00
3:40 am 03:40 Clear with Fog 53 11.7 53 11.7 100 100 Calm 30.21 1023 0 0 0.00 0.00
3:49 am 03:49 Clear with Mist and Fog 54 12 54 12 100 100 NE 3 6 30.21 1023 1 1 0.00 0.00
3:53 am 03:53 Clear with Mist and Fog 54 12.2 54 12.2 100 100 Calm 30.21 1023 1 1 0.00 0.00
4:00 am 04:00 Clear with Mist and Fog 54 12 54 12 100 100 Calm 30.21 1023 1 2 0.00 0.00
4:07 am 04:07 Mostly Cloudy with Fog 52 11.1 52 11.1 100 100 Calm 30.21 1023 1 1 0.00 0.00
4:15 am 04:15 Mostly Cloudy with Fog 52 11.1 52 11.1 100 100 Calm 30.21 1023 0 0 0.00 0.00
4:23 am 04:23 Mostly Cloudy with Mist and Fog 52 11.1 52 11.1 100 100 Calm 30.21 1023 1 2 0.00 0.00
4:32 am 04:32 Mostly Cloudy with Fog 54 12 54 12 100 100 Calm 30.21 1023 0 0 0.00 0.00
4:53 am 04:53 Clear with Fog 52 11.1 52 11.1 100 100 Calm 30.21 1023 0 0 0.00 0.00
4:58 am 04:58 Clear with Mist and Fog 53 11.7 53 11.7 100 100 Calm 30.21 1023 1 2 0.00 0.00
5:12 am 05:12 Clear with Fog 52 11 52 11 100 100 Calm 30.21 1023 1 1 0.00 0.00
5:44 am 05:44 Clear with Mist and Fog 52 11 52 11 100 100 Calm 30.24 1024 3 4 0.00 0.00
5:51 am 05:51 Clear with Mist and Fog 52 11 52 11 100 100 Calm 30.24 1024 6 10 0.00 0.00
5:53 am 05:53 Clear with Mist and Fog 51 10.6 51 10.6 100 100 Calm 30.22 1023 6 10 0.00 0.00
6:10 am 06:10 Clear with Mist and Fog 52 11 52 11 100 100 NE 3 6 30.24 1024 2 3 0.00 0.00
6:26 am 06:26 Clear with Fog 52 11 52 11 100 100 NE 3 6 30.24 1024 1 1 0.00 0.00
6:53 am 06:53 Clear with Patchy Fog 51 10.6 51 10.6 100 100 NNE 3 6 30.23 1024 7 11 0.00 0.00
7:16 am 07:16 Mostly Clear with Patchy Fog 52 11 52 11 100 100 Calm 30.24 1024 7 11 0.00 0.00
7:53 am 07:53 Sunny with Patchy Fog 53 11.7 53 11.7 100 100 Calm 30.26 1025 7 11 0.00 0.00
8:53 am 08:53 Sunny 58 14.4 56 13.3 93 93 Calm 30.27 1025 8 13 0.00 0.00
9:53 am 09:53 Sunny 63 17.2 58 14.4 84 84 ENE 3 6 30.28 1025 10 16 0.00 0.00
10:53 am 10:53 Sunny 69 20.6 59 15 70 70 NE 5 7 30.27 1025 10 16 0.00 0.00
11:53 am 11:53 Sunny 75 23.9 61 16.1 62 62 VRB 3 6 30.25 1025 10 16 0.00 0.00
12:53 pm 12:53 Partly Cloudy 79 26.1 59 15 50 50 N 9 15 30.24 1024 10 16 0.00 0.00
1:53 pm 13:53 Mostly Sunny 79 26.1 56 13.3 45 45 SE 6 9 30.22 1023 10 16 0.00 0.00
3:53 pm 15:53 Sunny 81 27.2 52 11.1 37 37 NNE 5 7 30.17 1022 10 16 0.00 0.00
4:53 pm 16:53 Sunny 81 27.2 53 11.7 38 38 ENE 5 7 30.16 1021 10 16 0.00 0.00
5:53 pm 17:53 Sunny 81 27.2 52 11.1 37 37 ENE 3 6 30.15 1021 10 16 0.00 0.00
6:53 pm 18:53 Sunny 78 25.6 56 13.3 47 47 ENE 3 6 30.15 1021 10 16 0.00 0.00
7:53 pm 19:53 Clear 66 18.9 59 15 78 78 Calm 30.17 1022 10 16 0.00 0.00
8:53 pm 20:53 Clear 61 16.1 57 13.9 87 87 Calm 30.18 1022 10 16 0.00 0.00
9:53 pm 21:53 Clear 59 15 57 13.9 93 93 Calm 30.19 1022 10 16 0.00 0.00
10:53 pm 22:53 Clear 56 13.3 56 13.3 100 100 Calm 30.19 1023 8 13 0.00 0.00
11:53 pm 23:53 Clear with Mist and Fog 56 13.3 55 12.8 97 97 ENE 3 6 30.20 1023 6 10 0.00 0.00

Powered by AerisWeather